This demonstration page uses our WeatherBlox Daily Observations layout. Learn more.

Left ArrowRight Arrow

39.12711, -84.51439

Hourly Observations for July 1, 2016

Temp ( °F °C ) Dew Point ( °F °C ) Humidity (%) Winds ( mph kmh ) Pressure ( in mb ) Visibility ( mi km ) Precip ( " mm )
12:53 am 00:53 Clear 62 16.7 61 16.1 96 96 Calm 29.97 1015 10 16 0.00 0.00
1:53 am 01:53 Mostly Clear 62 16.7 61 16.1 96 96 Calm 29.95 1014 10 16 0.00 0.00
2:53 am 02:53 Mostly Clear 62 16.7 62 16.7 100 100 Calm 29.94 1014 8 13 0.00 0.00
3:53 am 03:53 Partly Cloudy 61 16.1 61 16.1 100 100 Calm 29.93 1014 8 13 0.00 0.00
4:53 am 04:53 Mostly Clear 62 16.7 61 16.1 96 96 Calm 29.93 1014 7 11 0.00 0.00
5:53 am 05:53 Cloudy 63 17.2 63 17.2 100 100 Calm 29.94 1014 7 11 0.00 0.00
6:53 am 06:53 Mostly Cloudy 64 17.8 63 17.2 96 96 Calm 29.94 1014 10 16 0.00 0.00
7:53 am 07:53 Mostly Cloudy 68 20 64 17.8 87 87 Calm 29.94 1014 10 16 0.00 0.00
8:53 am 08:53 Cloudy 69 20.6 64 17.8 84 84 SSW 3 6 29.95 1014 10 16 0.00 0.00
9:53 am 09:53 Cloudy with Light Rain 68 20 65 18.3 90 90 VRB 5 7 29.96 1015 10 16 0.05 1.27
10:53 am 10:53 Cloudy 70 21.1 65 18.3 84 84 Calm 29.98 1015 10 16 0.00 0.03
11:53 am 11:53 Mostly Cloudy 74 23.3 66 18.9 76 76 SW 7 11 29.98 1015 10 16 0.00 0.03
12:53 pm 12:53 Partly Cloudy 78 25.6 67 19.4 69 69 VRB 5 7 29.98 1015 10 16 0.00 0.00
1:53 pm 13:53 Mostly Cloudy 79 26.1 64 17.8 60 60 VRB 6 9 29.97 1015 10 16 0.00 0.00
2:53 pm 14:53 Mostly Cloudy 83 28.3 65 18.3 55 55 NW 8 13 29.97 1015 10 16 0.00 0.00
3:53 pm 15:53 Partly Cloudy 81 27.2 62 16.7 53 53 WNW 8 13 29.97 1015 10 16 0.00 0.00
4:53 pm 16:53 Mostly Cloudy 82 27.8 61 16.1 49 49 N 12 19 29.97 1015 10 16 0.00 0.00
5:53 pm 17:53 Partly Cloudy 83 28.3 60 15.6 46 46 WNW 13 20 29.98 1015 10 16 0.00 0.00
6:53 pm 18:53 Sunny 81 27.2 58 14.4 45 45 WNW 9 15 29.98 1015 10 16 0.00 0.00
7:53 pm 19:53 Sunny 77 25 61 16 57 57 SSW 7 11 29.94 1014 10 16 0.00 0.00
8:53 pm 20:53 Sunny 75 23.9 56 13.3 52 52 NW 6 9 30.01 1016 10 16 0.00 0.00
9:53 pm 21:53 Clear 73 22.8 57 13.9 57 57 N 8 13 30.03 1017 10 16 0.00 0.00
10:53 pm 22:53 Clear 71 21.7 56 13.3 59 59 N 7 11 30.06 1018 10 16 0.00 0.00
11:53 pm 23:53 Clear 69 20.6 55 12.8 61 61 N 7 11 30.08 1019 10 16 0.00 0.00

Powered by AerisWeather